User: anonymous   Login
Location: Unspecified
(0.0000°N, 0.0000°E)
Time: 20:32:35
(UTC+02:00)
Language:

Iridium 15 - Orbit

View from above orbital plane
View from above orbital plane
View from above satellite
View from above satellite

Ground track
Ground track

The orbit data is extracted from the following two-line orbital elements,

1 24869U 97034A   18140.79236906 +.00000162 +00000-0 +46588-4 0  9992
2 24869 086.4214 240.7914 0002076 088.7878 271.3558 14.38597467092202
Epoch (UTC): 20 May 2018 19:01:00
Eccentricity: 0.0002076
inclination: 86.4214°
perigee height: 761 km
apogee height: 764 km
right ascension of ascending node: 240.7914°
argument of perigee: 88.7878°
revolutions per day: 14.38597467
mean anomaly at epoch: 271.3558°
orbit number at epoch: 9220

The dashed part of the orbit path shows where the satellite is in the earth's shadow,  

DLR